Location: Maiden
(35.5760°N, 81.2120°W)
Time: 21:33:10
(UTC-04:00)

A-11 Canister half - Pass Details

Date: 11 August 2020
Orbit: 1514 x 1686 km, 47.2° (Epoch: 26 September)

Event Time Altitude Azimuth Distance (km) Brightness Sun altitude
Rises 22:27:49 0° 294° (WNW) 4,810 12.8 -23.7°
Reaches altitude 10° 22:31:07 10° 300° (WNW) 3,848 12.1 -24.2°
Maximum altitude 22:40:31 46° 12° (NNE) 2,125 9.9 -25.6°
Enters shadow 22:48:18 17° 78° (ENE) 3,433 10.5 -26.7°
